View from above orbital plane
|
View from above satellite
|
Ground track
|
The orbit data is extracted from the following two-line orbital elements,
1 15890U 85058B 21059.50883927 .00000080 00000-0 67097-5 0 9990
2 15890 82.5236 75.0452 0022442 82.5260 69.6228 14.83463160904227
Epoch (UTC): | 28 February 2021 12:12:43 |
Eccentricity: | 0.0022442 |
inclination: | 82.5236° |
perigee height: | 603 km |
apogee height: | 634 km |
right ascension of ascending node: | 75.0452° |
argument of perigee: | 82.5260° |
revolutions per day: | 14.83463160 |
mean anomaly at epoch: | 69.6228° |
orbit number at epoch: | 90422 |
The dashed part of the orbit path shows where the satellite is in the earth's shadow,
|
|